Location: *
(46.1200°N, 11.2700°E)
Time: 09:09:40
(UTC+00:00)

Cosmos 1461 - Pass Details

Date: 02 March 2021
Orbit: 505 x 659 km, 65.0° (Epoch: 18 April)

Event Time Altitude Azimuth Distance (km) Brightness Sun altitude
Rises 17:22:47 0° 208° (SSW) 2,949 7.0 -4.3°
Reaches altitude 10° 17:25:04 10° 206° (SSW) 2,055 6.2 -4.7°
Maximum altitude 17:29:44 71° 123° (ESE) 699 3.2 -5.5°
Drops below altitude 10° 17:34:27 10° 40° (NE) 2,078 5.4 -6.3°
Sets 17:36:46 0° 38° (NE) 2,987 6.2 -6.7°
